Regional Weather Roundup
Issued by NWS Newport/Morehead, NC

Home | Current Version | Previous Version | Text Only | Print | Product List | Glossary On
Versions: 1 2 3 4 5 6 7 8 9 10 11 12 13 14 15 16 17 18 19 20 21 22 23 24 25 26 27 28 29 30 31 32 33 34 35 36 37 38 39 40 41 42 43 44 45 46 47 48 49 50
000
ASUS42 KMHX 230625
RWRMHX
WEATHER ROUNDUP FOR EASTERN NORTH CAROLINA
NATIONAL WEATHER SERVICE NEWPORT/MOREHEAD CITY NC
200 AM EDT WED AUG 23 2017

NOTE: "FAIR" INDICATES FEW OR NO CLOUDS BELOW 12,000 FEET
WITH NO SIGNIFICANT WEATHER AND/OR OBSTRUCTIONS TO VISIBILITY

NCZ015>017-031-032-045>047-102-103-230700-
NORTH COAST

CITY           SKY/WX    TMP DP  RH WIND       PRES   REMARKS
EDENTON        PTCLDY    81  76  85 SW9       29.93S
ELIZABETH CITY CLEAR     79  77  94 SW10      29.91F
KITTY HAWK     CLEAR     80  74  82 SW10      29.91S
MANTEO         CLEAR     79  75  87 W10       29.93S

$$

NCZ045>047-081-094-103-104-230700-
CENTRAL COAST

CITY           SKY/WX    TMP DP  RH WIND       PRES   REMARKS
FRISCO         CLEAR     82  78  88 SW10      29.95S

$$

NCZ095-097-098-100-101-230700-
SOUTHERN COAST

CITY           SKY/WX    TMP DP  RH WIND       PRES   REMARKS
BEAUFORT       PTCLDY    82  77  84 SW15      29.95F
CEDAR ISLAND   NOT AVBL
JACKSONVILLE   CLEAR     78  76  93 SW6       29.94F
PINEY ISLAND   CLEAR    N/A N/A N/A SW6       29.95S
WILMINGTON     CLEAR     79  74  84 S5        29.95F


$$

NCZ011>013-027>030-043-044-078>080-089-090>093-098-230700-
COASTAL PLAIN

CITY           SKY/WX    TMP DP  RH WIND       PRES   REMARKS
AHOSKIE          N/A     76  74  96 S3        29.90F
CLINTON        CLEAR     76  76  99 S3        29.94F
ELIZABETHTOWN  NOT AVBL
GOLDSBORO      CLEAR     78  73  83 N5        29.94F
GREENVILLE     CLEAR     77  75  94 SW7       29.95S
HAVELOCK       CLEAR     77  75  93 SW3       29.96S
KENANSVILLE    CLEAR     75  73  94 CALM      29.94F
KINSTON        CLEAR     78  74  90 S8        29.94F
NEW BERN       CLEAR     76  75  97 SW7       29.95F
RICHLANDS      CLEAR     75  74  96 S5        29.95F
ROCKY MOUNT    CLEAR     76  74  93 S6        29.92F
WASHINGTON     CLEAR     77  74  91 SW6       29.93F
WHITEVILLE     CLEAR     76  73  91 S3        29.95F

$$

AMZ130-135-150-152-154-156-158-170-250-252-270-ANZ085-086-088-633-658-670-230700-
MARINE OBSERVATIONS

STATION/POSITION TIME  TEMP    WIND        PRES    WAVE   SWELL
                       AIR SEA DIR/SP/G            HT/PER HT/PER
                 (UTC) (F)     (DEG/KT/KT) (MB)    (FT/S) (FT/S)
CHESAPEAKE LIGHT NOT AVBL
64 E VA BEACH    0550   80 79  230/ 16/ 17 1013.0    4/ 9   3/ 9
DUCK             0600   81 69  230/ 17/ 22 1012.5
2 E DUCK         0600      75                N/A     3/10   2/11
OREGON INLET     0600   82 85  220/ 19/ 22 1013.1
13E OREGON INLT  0548      79                N/A     4/10   3/10
HATTERAS CG      0600   81 84  240/ 10/ 12 1014.0
DIAMOND BUOY     0550   84 85  230/ 17/ 19 1013.8    5/ 9   3/ 9
CAPE LOOKOUT     0600   82     230/ 12/ 16 1013.9
BEAUFORT LAB     0600   82 81  220/  4/ 11 1013.5
30 SE NEW RVR IN 0608   81 84  230/ 14/ 19 1014.5
30 SE NEW RVR IN 0613      84                N/A     5/ 9   2/11
27 SE WRIGHTSVLE 0608   83 84  210/ 16/ 21 1014.4
5 SE WRIGHTSVLE  0608   83 84  230/ 12/ 17 1014.2
225 S CAPE HAT   0550   82 84  170/  6/  8 1016.0    3/ 9   3/ 9
41 SE CHARLESTON 0610   83 84  210/ 12/ 14 1014.7

$$



USA.gov is the U.S. government's official web portal to all federal, state and local government web resources and services.